{"data":{"norad_id":69689,"epoch":"2026-09-20T01:00:00.244800Z","epoch_age_seconds":61262,"freshness":"FRESH","line1":"1 69689U 26145N   26263.04166950  .00013436  00000+0  41771-3 0  9995","line2":"2 69689  97.2840 109.7231 0003132  67.9527 292.2048 15.33446779 13479","mean_motion":15.33446779,"eccentricity":0.0003132,"inclination_deg":97.284,"raan_deg":109.7231,"arg_perigee_deg":67.9527,"mean_anomaly_deg":292.2048,"bstar":0.00041771,"rev_number":1347,"period_min":93.906095713283,"perigee_km":463.39444245802,"apogee_km":467.68132040375,"semimajor_km":6843.6748814309,"source":"CELESTRAK","updated_at":"2026-09-20T09:00:44.254312Z"}}